Location: Newark
(7.0858°N, 171.3717°E)
Time: 23:06:49
(UTC+00:00)

Vanguard 2 - Pass Details

Date: 02 December 2020
Orbit: 553 x 2937 km, 32.9° (Epoch: 20 January)

Event Time Altitude Azimuth Distance (km) Brightness Sun altitude
Rises 05:33:47 0° 290° (WNW) 3,068 11.4 8.8°
Reaches altitude 10° 05:35:52 10° 283° (WNW) 2,319 11.0 8.4°
Maximum altitude 05:41:02 45° 210° (SSW) 1,358 9.5 7.2°
Drops below altitude 10° 05:49:17 10° 140° (SE) 3,672 10.9 5.3°
Sets 05:53:26 0° 135° (SE) 5,081 11.5 4.4°
